Temperature
20 20 20 20 24 25 24 24 24 24 24 23 22 23 23 23 22 21 18 17 17 17 17 17 17 17 17 17 17 17 17 17 17 17 17 17 17 17 17 17 17 17 17 17 17 17 17 17 17
20 21 20 22 25 25 24 24 24 23 23 22 22 22 22 21 19 18 17 17 17 17 17 17 17 17 17 17 17 17 17 17 17 17 17 17 17 17 17 17 17 17 17 17 17 17 17 17 17
21 21 22 24 24 24 24 24 23 23 22 22 22 21 21 20 19 18 17 17 17 17 16 16 17 17 17 17 17 17 16 16 17 17 17 17 17 17 16 17 17 16 16 17 17 17 17 17 17
20 21 23 25 24 24 24 24 23 23 22 21 22 21 20 18 18 18 17 17 17 16 16 16 17 17 17 17 17 16 16 16 17 16 16 16 16 16 16 16 16 16 16 16 16 17 17 17 17
20 23 24 24 24 24 24 23 23 24 23 22 22 21 20 18 18 17 17 17 17 16 16 16 17 17 17 17 16 16 16 16 16 16 16 16 16 16 16 16 16 16 16 16 16 16 16 17 17
22 24 24 24 24 24 24 23 23 24 23 22 22 22 20 18 18 17 17 17 17 16 16 16 17 17 17 17 16 16 16 16 16 16 16 16 16 16 16 16 16 16 16 16 16 16 16 16 16
23 24 24 24 23 23 24 23 23 23 23 22 22 22 20 18 17 17 17 17 17 16 16 16 16 16 16 16 16 16 16 16 16 16 16 16 16 16 16 16 16 16 16 16 16 16 16 16 16
22 24 24 24 23 23 23 23 22 23 22 21 21 22 20 18 17 17 17 17 17 16 16 16 16 16 16 16 16 16 16 16 16 16 16 16 16 16 16 16 16 16 16 16 16 16 16 16 16
22 24 24 24 23 23 23 23 22 21 21 20 20 20 19 18 17 17 17 17 17 16 16 16 16 16 16 16 16 16 16 16 16 16 16 16 15 15 15 15 15 15 15 15 15 15 16 16 16
23 23 23 24 24 24 23 22 22 22 22 20 19 19 18 18 17 17 17 17 17 17 16 16 16 16 16 16 16 16 16 16 16 15 15 15 15 15 15 15 15 15 15 15 15 15 15 15 15
24 23 23 23 23 23 23 22 21 22 22 21 20 19 18 18 17 17 17 17 17 17 16 16 16 16 16 16 16 16 16 16 15 15 15 15 15 15 15 15 15 15 15 15 15 15 15 15 15
23 23 23 23 22 22 22 22 21 21 21 20 20 19 18 18 17 17 17 17 17 17 17 16 16 16 16 16 16 16 16 16 15 15 15 15 15 15 15 15 15 15 15 15 15 15 15 15 15
24 23 22 22 21 22 21 21 21 20 19 19 19 18 18 18 18 17 17 17 17 17 16 16 16 16 16 16 16 16 16 16 15 15 15 15 15 15 15 15 15 15 15 15 15 15 15 15 15
23 22 22 22 22 22 22 21 21 20 19 19 19 18 18 18 18 17 17 17 17 17 16 16 16 16 16 16 16 16 16 15 15 15 15 15 15 15 15 15 15 15 14 15 15 15 14 14 14
22 23 22 22 22 22 22 22 21 20 19 19 19 18 18 18 17 17 17 17 17 17 17 16 16 16 16 16 16 15 15 15 15 15 15 15 15 15 15 15 15 14 14 15 14 14 14 14 14
23 23 23 22 22 22 22 21 21 19 19 19 18 18 18 17 17 17 17 17 17 17 17 16 16 16 16 16 15 15 15 15 15 15 15 15 15 15 15 14 15 14 14 14 14 14 14 14 14
23 23 22 22 22 22 22 21 21 19 19 19 18 18 18 17 17 17 17 17 17 16 16 16 16 16 16 15 15 15 15 15 15 15 15 15 15 15 14 14 14 14 14 14 14 14 14 14 14
23 23 22 22 22 22 22 21 21 19 19 19 18 18 18 17 17 16 16 16 16 16 16 16 16 16 16 15 15 15 15 15 15 15 15 15 14 14 14 14 14 14 14 14 14 14 14 14 14
23 23 22 22 22 21 21 21 21 20 19 19 18 18 18 17 17 16 16 16 16 16 16 16 16 16 15 15 15 15 15 15 15 15 15 14 14 14 14 14 14 14 14 14 14 14 14 14 14
22 22 22 22 21 21 21 21 21 20 19 19 18 18 18 17 17 16 16 16 16 16 16 16 16 16 15 15 15 15 15 15 15 15 14 14 14 14 14 14 14 14 14 14 14 14 14 14 14
22 22 22 22 21 21 21 21 21 21 19 18 18 17 17 17 17 16 16 16 16 16 16 16 16 15 15 15 15 15 15 15 14 14 14 14 14 14 14 14 14 14 14 14 14 13 13 14 14
22 22 22 21 21 21 21 21 21 21 20 19 18 17 17 17 17 16 16 16 16 16 16 15 15 15 15 15 15 15 15 14 14 14 14 14 14 14 14 14 14 14 14 14 13 13 13 13 13
22 21 22 21 21 21 21 21 21 21 20 20 19 18 17 17 16 16 16 16 16 16 16 15 15 15 15 15 15 15 15 14 14 14 14 14 14 14 14 14 14 14 14 13 13 13 13 13 13
21 21 21 21 22 21 21 21 21 21 20 20 19 18 17 17 16 16 16 15 15 15 15 15 15 15 15 15 15 15 14 14 14 14 14 14 14 14 14 13 13 13 13 13 13 13 13 13 13
22 22 21 21 21 21 21 21 21 21 20 19 19 18 17 16 16 16 15 15 15 15 15 15 15 15 15 15 15 14 14 14 14 14 14 13 13 13 13 13 13 13 13 13 13 13 13 13 13
22 22 21 21 21 21 21 20 21 20 19 18 18 17 17 16 16 15 15 15 15 15 15 15 15 15 14 14 14 14 14 14 14 14 13 13 13 13 13 13 13 13 13 13 13 13 13 13 13
21 22 22 21 21 21 21 21 20 20 19 18 18 17 17 16 16 15 15 15 15 15 15 14 14 14 14 14 14 14 14 14 14 13 13 13 13 13 13 13 13 13 13 13 13 13 13 13 13
21 21 21 21 20 20 21 21 21 20 20 19 18 18 17 16 16 15 15 15 15 15 15 14 14 14 14 14 14 14 14 14 14 13 13 13 13 13 13 13 13 13 13 13 12 12 12 12 12
20 20 21 21 20 20 20 21 21 20 20 19 19 17 17 16 16 15 15 15 14 15 14 14 14 14 14 14 14 14 14 14 13 13 13 13 13 13 13 13 13 12 12 12 12 12 12 12 12
21 21 21 20 20 20 20 20 20 20 19 18 18 17 16 16 15 15 15 14 14 14 14 14 14 14 14 14 14 14 13 13 13 13 13 13 13 13 13 13 12 12 12 12 12 12 12 12 12
Wind_Speed
4 3 2 2 2 2 4 4 3 4 4 4 4 3 4 5 4 4 4 4 4 4 4 5 5 5 5 5 4 4 5 7 7 8 8 8 8 9 9 9 10 9 9 9 9 9 10 10 10
2 2 2 2 1 3 4 4 5 5 5 5 4 4 4 5 5 5 4 4 4 4 5 6 6 6 6 6 6 6 7 8 8 8 8 9 9 9 9 10 10 11 10 10 10 10 10 10 10
2 2 1 1 1 2 4 5 5 6 5 3 3 4 4 4 4 4 4 5 4 5 5 7 6 7 7 7 8 8 9 9 8 8 9 9 9 10 10 10 10 11 10 10 11 12 11 10 10
2 2 1 1 5 5 4 4 5 6 4 3 3 5 4 4 3 5 6 5 6 5 6 8 6 7 8 8 10 10 10 9 9 9 9 9 10 10 10 10 11 11 11 11 11 12 12 12 12
1 1 2 4 5 4 3 3 3 4 4 4 3 5 5 4 5 7 6 6 6 6 6 8 7 8 8 9 9 10 10 10 10 9 10 10 10 10 10 10 10 11 11 11 11 12 12 12 12
1 2 3 4 5 4 4 3 3 4 5 5 4 5 5 6 7 7 6 6 6 6 6 7 8 8 8 9 9 10 10 10 10 10 10 10 9 10 10 11 11 11 11 11 12 12 12 12 12
1 1 3 4 5 4 4 2 2 3 4 3 2 4 6 7 6 7 6 6 6 6 6 6 7 8 8 8 9 9 9 10 10 10 10 10 10 10 11 11 11 12 12 12 12 13 12 12 12
0 2 3 3 4 3 3 3 2 2 4 4 1 2 5 8 8 7 7 6 6 6 5 5 6 6 7 8 8 8 8 9 9 10 10 9 9 10 9 10 11 11 12 12 12 12 12 11 11
1 2 3 3 2 3 3 3 3 2 4 3 2 3 6 10 9 8 7 6 6 5 5 5 5 6 6 6 7 6 8 8 7 9 8 6 7 8 8 11 11 11 11 12 12 11 11 9 11
1 2 2 2 2 3 4 3 3 3 3 3 4 5 8 10 9 8 6 6 5 5 5 4 4 4 5 5 5 5 6 6 5 6 7 6 6 7 8 11 9 10 11 12 11 9 7 5 7
2 1 2 2 2 3 4 4 2 2 2 2 3 6 9 9 7 6 5 5 5 5 4 4 4 4 3 4 4 4 4 5 5 5 6 5 6 5 6 6 7 7 6 7 7 5 6 7 7
3 2 2 2 3 3 3 3 3 2 2 3 4 7 9 9 8 6 5 4 4 4 3 3 3 3 3 4 3 3 3 4 4 4 4 4 4 4 5 4 5 5 5 5 5 5 7 7 8
3 3 3 3 3 3 4 3 2 3 3 4 6 7 8 7 7 5 4 4 4 4 4 3 2 2 3 3 2 2 3 3 4 3 3 4 3 3 4 4 4 5 5 5 5 5 6 6 7
3 3 3 2 3 3 4 3 2 2 3 5 6 6 6 6 5 5 4 4 4 4 3 3 3 2 2 2 2 2 3 3 3 3 2 3 3 3 3 4 4 4 4 4 4 5 4 5 5
4 4 3 2 2 2 3 2 2 2 4 5 5 6 5 4 4 4 4 3 4 4 3 3 3 2 2 2 1 1 2 2 2 2 2 2 3 3 3 3 3 3 4 4 3 4 4 4 5
4 4 3 2 1 2 4 1 3 3 4 4 4 4 4 4 4 3 3 2 3 3 3 3 3 3 2 2 2 2 2 2 2 2 2 2 2 2 3 2 3 3 3 3 2 2 3 3 3
4 3 2 2 1 2 3 1 3 2 3 3 3 3 4 3 3 2 2 2 3 3 3 3 3 3 2 2 2 1 2 2 2 2 2 2 2 2 3 2 2 3 2 2 2 2 2 3 3
3 2 2 1 2 2 3 2 1 2 3 3 3 3 3 3 3 2 2 2 3 3 3 3 3 3 3 3 2 2 1 1 2 1 1 1 1 2 2 2 2 2 2 2 2 2 2 2 2
2 3 2 1 1 1 2 2 1 1 2 3 3 3 3 3 2 2 2 2 3 2 2 2 3 3 3 3 2 2 2 2 2 1 1 1 2 2 2 2 2 2 2 2 2 2 2 2 2
4 4 3 1 1 2 1 2 2 2 3 3 4 3 3 2 2 2 2 2 2 3 2 2 2 2 2 2 2 2 2 2 2 2 2 2 2 2 2 3 3 3 2 2 2 2 1 1 1
6 5 4 2 2 3 3 3 3 3 3 3 3 3 3 3 3 3 2 2 2 2 2 2 2 2 2 2 2 2 2 2 3 3 2 2 2 2 2 2 3 3 3 2 2 2 2 1 1
6 3 4 4 5 3 3 4 2 3 4 3 3 3 3 3 3 3 3 2 2 1 1 2 3 2 2 3 2 3 3 3 2 2 2 3 3 3 3 3 3 3 2 3 3 3 3 3 2
2 1 3 5 5 5 5 5 2 3 4 3 3 4 3 3 3 3 3 2 1 1 1 2 2 2 2 2 2 3 3 2 2 2 2 3 3 3 3 3 3 3 2 3 3 3 3 3 3
4 4 4 4 5 6 4 5 3 3 3 2 2 4 4 3 3 3 2 2 1 1 1 1 2 2 2 2 3 3 3 3 3 3 3 3 3 2 3 3 3 3 3 3 3 3 4 3 3
5 5 4 5 5 3 1 4 2 0 0 1 1 2 3 3 3 3 3 2 1 1 1 1 2 3 3 3 3 3 4 4 4 4 3 3 3 2 2 3 3 3 3 3 3 3 3 3 3
6 6 5 4 4 2 3 4 0 1 1 1 1 2 3 3 3 3 3 2 2 2 2 2 2 3 3 3 3 3 3 3 3 4 3 3 3 2 2 3 3 3 3 3 3 3 3 3 3
5 6 4 5 5 5 3 2 1 1 1 1 2 3 4 4 4 4 4 3 2 2 2 2 3 2 2 3 3 3 3 3 3 4 4 3 3 2 3 3 3 3 3 4 4 3 4 4 4
3 3 4 5 4 5 3 4 2 1 1 2 3 3 4 3 4 4 4 4 3 2 2 2 2 2 2 2 2 2 3 4 3 3 4 4 4 3 4 4 4 4 4 4 4 4 4 5 4
4 5 4 4 4 4 4 0 2 1 0 1 2 3 3 4 4 4 4 4 3 2 2 2 2 2 1 2 2 2 3 3 3 3 4 4 4 4 5 5 4 4 4 4 4 4 5 5 5
5 5 6 5 4 4 5 1 3 1 1 1 1 2 2 3 3 4 3 3 3 3 2 2 2 2 2 2 2 2 2 2 2 3 3 3 3 4 4 4 4 4 4 4 4 4 5 5 5
Wind_Direction
170 176 208 230 211 127 89 85 91 97 85 75 70 62 61 42 26 62 80 91 89 97 96 107 92 90 86 80 76 82 94 93 92 91 88 85 81 77 74 73 75 77 77 76 74 75 76 74 74
160 180 223 244 225 127 100 98 100 80 97 108 86 72 71 66 55 84 101 97 103 99 94 92 90 87 76 69 74 87 95 93 87 88 86 84 79 73 75 76 76 78 78 74 72 74 77 77 77
160 235 268 229 92 84 99 99 100 99 109 111 92 64 54 69 81 93 103 123 114 102 95 93 91 86 77 68 76 88 93 93 91 90 89 85 80 76 73 74 75 77 77 77 75 72 73 78 78
209 205 217 128 99 78 85 109 120 126 113 84 103 93 78 66 77 99 115 124 117 105 97 96 91 88 82 75 77 86 93 93 89 91 92 87 83 78 74 74 74 76 77 76 76 76 74 77 77
228 223 156 122 103 94 95 117 138 127 112 107 109 98 97 92 97 111 119 116 113 106 102 101 90 87 86 82 79 82 84 83 84 91 95 90 84 80 76 76 75 77 78 78 79 78 77 77 75
200 203 161 131 112 101 97 118 134 123 113 117 121 112 104 117 123 122 120 116 110 109 106 106 101 90 87 86 82 80 78 78 80 88 94 89 86 83 80 77 76 76 78 79 80 80 79 74 74
158 131 127 128 125 113 94 118 142 130 119 113 121 117 120 133 130 133 128 120 114 112 111 110 112 110 104 94 86 81 80 78 78 84 87 87 85 85 84 81 80 80 80 80 81 81 81 77 74
280 151 136 136 135 105 99 117 106 112 105 96 121 114 131 143 142 138 131 125 119 115 112 107 108 109 106 105 96 87 86 83 83 86 88 90 95 95 92 90 82 83 83 84 84 83 80 77 74
213 169 140 128 131 108 116 124 107 98 110 95 69 64 113 137 147 145 137 129 123 119 117 112 110 103 98 95 102 105 101 97 104 101 99 103 97 96 98 82 83 85 86 86 84 82 83 85 82
173 149 116 92 105 108 118 112 116 142 126 111 104 103 124 143 153 153 146 141 134 128 123 118 110 104 99 97 107 101 96 100 99 100 102 94 89 85 91 95 90 93 95 94 87 88 96 89 83
150 127 116 118 113 116 118 101 98 159 126 129 139 140 146 150 154 156 153 148 141 133 126 119 114 117 112 110 103 97 96 98 94 95 101 97 94 99 97 102 110 109 109 96 99 96 76 76 73
137 103 104 112 120 126 119 117 104 62 54 80 125 142 150 155 161 164 158 146 142 136 135 132 130 128 120 110 107 107 104 101 99 98 100 102 95 91 92 92 90 96 91 88 86 75 77 75 76
147 125 111 115 120 121 118 111 101 73 69 102 120 137 149 158 160 158 155 151 146 138 134 135 131 133 125 109 114 121 110 107 105 101 99 100 103 95 93 98 96 90 90 95 90 81 75 73 69
121 125 123 133 143 139 122 110 115 101 117 131 137 142 147 154 157 153 157 153 147 139 136 136 126 120 120 126 141 127 126 131 124 120 125 115 117 112 103 99 99 94 92 89 91 89 84 77 74
158 159 154 146 170 162 160 120 136 126 137 146 151 146 145 156 161 161 157 158 152 137 138 140 132 129 126 124 127 129 141 142 137 129 123 119 115 116 116 109 110 109 110 105 93 91 87 85 84
194 208 196 134 160 177 204 188 103 123 146 149 153 154 160 166 172 165 160 162 153 146 146 144 153 149 136 142 160 153 153 151 151 144 141 130 132 130 116 119 120 120 120 117 109 103 98 97 88
207 223 222 167 141 186 208 216 101 125 151 150 149 153 161 157 166 168 169 173 171 167 164 163 161 167 161 156 153 145 144 148 153 159 159 160 149 154 142 132 131 127 131 133 126 113 108 104 96
222 231 230 224 124 180 203 220 110 123 152 171 169 160 162 165 176 163 161 184 193 184 186 186 179 184 175 176 170 148 145 141 132 138 170 151 162 158 148 150 146 138 146 139 138 121 118 109 113
233 238 251 272 124 217 222 247 256 182 172 194 192 184 180 170 157 140 145 157 182 183 191 193 195 184 181 183 183 183 172 156 141 134 152 172 179 170 157 167 161 160 155 158 157 140 135 137 142
218 235 242 181 144 238 231 269 264 206 202 212 215 207 205 190 168 153 154 153 164 180 183 191 198 188 187 191 192 196 174 157 143 145 140 158 175 171 172 180 171 160 156 173 172 166 187 157 206
235 245 255 253 208 215 246 247 214 198 185 193 220 226 224 214 205 176 167 162 167 174 186 193 192 184 185 187 184 179 165 170 166 165 162 158 166 171 176 180 181 176 178 178 190 197 212 216 211
241 242 252 244 245 249 246 269 219 196 195 206 216 218 224 216 203 190 178 171 180 191 195 205 194 180 175 184 192 198 194 189 179 164 161 168 173 177 181 184 190 188 193 191 199 206 219 226 227
250 202 233 243 255 262 242 260 230 189 219 218 212 208 206 200 193 191 187 186 189 177 185 203 188 173 170 182 178 195 197 190 165 158 174 187 180 183 185 198 199 196 198 202 208 218 223 227 240
169 177 190 220 244 255 247 247 249 207 230 236 205 200 195 185 179 180 175 164 154 134 155 180 184 177 177 178 184 191 197 193 182 179 187 200 187 187 188 199 201 202 202 206 207 215 219 232 232
209 231 234 224 224 242 157 243 253 95 273 273 255 203 190 180 174 170 166 157 151 148 161 171 183 195 194 191 188 197 204 206 204 199 203 206 199 198 195 199 204 205 206 209 210 215 224 228 230
220 242 260 269 262 253 206 239 200 73 317 275 233 189 171 170 173 174 174 172 172 170 165 172 193 208 202 202 197 203 202 216 219 214 213 216 219 213 209 210 209 211 211 214 216 227 228 235 233
219 231 265 276 276 268 232 209 219 167 206 191 173 166 169 174 180 182 180 179 179 180 183 190 197 209 210 216 212 209 211 216 223 226 225 224 228 226 219 214 214 210 211 218 221 228 233 237 239
251 222 225 240 260 257 238 237 244 189 210 170 175 175 178 181 190 189 183 183 184 185 191 192 198 202 209 219 223 217 222 223 228 231 228 229 229 229 229 224 231 223 220 222 225 232 235 236 234
189 204 227 238 260 274 271 202 41 327 39 157 176 183 182 186 188 187 186 188 184 174 182 188 194 198 214 224 236 237 224 226 229 236 242 243 238 232 232 228 232 231 229 227 224 231 233 236 237
228 228 230 243 240 248 271 275 79 26 65 101 137 157 177 188 188 184 179 178 182 187 198 202 205 215 223 232 248 256 240 220 227 235 242 248 245 235 230 229 228 227 230 228 230 234 236 236 238
Height
1511 1510 1511 1512 1510 1508 1512 1512 1511 1512 1513 1517 1517 1517 1517 1518 1520 1527 1528 1526 1526 1526 1526 1525 1525 1524 1524 1522 1520 1519 1520 1521 1522 1522 1522 1522 1522 1522 1522 1521 1521 1520 1520 1520 1519 1519 1519 1519 1518
1511 1511 1513 1512 1508 1512 1516 1512 1513 1514 1517 1519 1519 1519 1519 1522 1525 1526 1526 1526 1527 1527 1527 1527 1526 1525 1523 1521 1517 1516 1517 1520 1521 1522 1523 1523 1523 1523 1523 1523 1522 1522 1522 1521 1520 1520 1520 1520 1520
1511 1512 1514 1509 1509 1512 1516 1513 1514 1517 1519 1519 1520 1521 1522 1525 1527 1527 1527 1526 1527 1528 1528 1527 1526 1526 1524 1521 1516 1515 1516 1519 1521 1522 1523 1524 1524 1524 1524 1524 1524 1524 1523 1523 1522 1522 1522 1521 1521
1513 1514 1513 1510 1513 1513 1513 1514 1516 1517 1519 1520 1520 1522 1525 1527 1528 1528 1528 1528 1528 1529 1529 1528 1527 1527 1525 1523 1520 1518 1519 1520 1520 1520 1523 1525 1525 1526 1526 1526 1526 1525 1525 1524 1524 1523 1523 1523 1523
1513 1513 1510 1512 1513 1513 1514 1515 1516 1516 1518 1521 1521 1523 1526 1528 1528 1529 1529 1529 1530 1530 1530 1529 1529 1528 1527 1526 1524 1523 1522 1521 1520 1520 1523 1525 1527 1527 1527 1527 1527 1527 1527 1526 1526 1525 1525 1525 1524
1514 1511 1511 1515 1515 1514 1515 1516 1517 1517 1519 1522 1522 1523 1527 1529 1529 1529 1530 1530 1531 1531 1531 1531 1530 1530 1529 1528 1527 1527 1526 1524 1523 1523 1525 1527 1528 1528 1529 1529 1529 1529 1528 1528 1527 1527 1527 1526 1526
1514 1510 1512 1513 1516 1515 1516 1518 1517 1518 1519 1522 1523 1523 1527 1529 1530 1530 1531 1531 1532 1532 1532 1533 1532 1532 1531 1531 1530 1529 1529 1528 1527 1527 1528 1529 1530 1530 1530 1530 1531 1531 1530 1530 1529 1529 1528 1528 1528
1514 1512 1513 1513 1516 1517 1518 1519 1520 1520 1521 1524 1524 1524 1527 1530 1530 1531 1532 1532 1533 1533 1534 1534 1534 1534 1534 1533 1532 1532 1531 1531 1531 1531 1531 1531 1532 1532 1532 1532 1532 1532 1532 1532 1531 1531 1530 1530 1530
1514 1513 1514 1514 1516 1517 1518 1519 1521 1522 1523 1524 1525 1526 1528 1529 1530 1531 1532 1533 1534 1534 1535 1535 1535 1535 1535 1535 1534 1534 1534 1533 1533 1533 1533 1534 1535 1535 1535 1534 1534 1534 1534 1533 1533 1533 1532 1532 1532
1514 1513 1514 1515 1515 1516 1519 1519 1521 1522 1523 1525 1526 1527 1528 1529 1530 1532 1533 1534 1534 1535 1536 1536 1536 1536 1536 1536 1536 1536 1536 1536 1536 1536 1536 1536 1536 1536 1536 1536 1536 1536 1536 1535 1535 1535 1535 1535 1534
1513 1513 1515 1516 1517 1518 1519 1521 1522 1521 1522 1524 1526 1527 1528 1529 1531 1532 1533 1534 1535 1536 1536 1537 1537 1537 1537 1537 1538 1537 1537 1537 1537 1538 1538 1538 1538 1538 1538 1538 1538 1538 1538 1538 1537 1537 1537 1537 1536
1514 1515 1516 1517 1519 1519 1519 1521 1522 1523 1524 1525 1526 1527 1528 1529 1531 1532 1534 1535 1535 1536 1536 1537 1537 1538 1538 1538 1538 1538 1538 1538 1539 1539 1539 1539 1539 1539 1540 1540 1540 1540 1540 1539 1539 1539 1539 1539 1539
1514 1516 1518 1519 1519 1520 1521 1522 1523 1525 1526 1526 1527 1528 1529 1530 1532 1533 1534 1535 1535 1536 1537 1537 1538 1538 1538 1538 1538 1539 1539 1539 1539 1539 1540 1540 1540 1541 1541 1541 1541 1541 1541 1541 1541 1541 1541 1541 1540
1515 1516 1518 1519 1519 1520 1521 1522 1524 1525 1526 1527 1527 1528 1530 1531 1532 1533 1534 1535 1536 1536 1537 1537 1538 1538 1538 1539 1539 1539 1539 1539 1540 1540 1540 1541 1541 1541 1542 1542 1542 1542 1542 1542 1542 1542 1542 1542 1541
1516 1516 1517 1518 1518 1519 1520 1522 1523 1525 1526 1527 1527 1529 1530 1531 1532 1533 1534 1535 1536 1536 1537 1537 1538 1538 1538 1539 1539 1539 1539 1540 1540 1541 1541 1542 1542 1542 1542 1542 1543 1543 1543 1543 1543 1544 1543 1543 1543
1514 1514 1517 1517 1518 1519 1521 1524 1523 1525 1526 1526 1528 1529 1530 1531 1532 1533 1534 1535 1536 1536 1537 1537 1537 1538 1538 1539 1539 1539 1540 1540 1540 1540 1541 1542 1542 1542 1542 1543 1543 1543 1543 1544 1544 1544 1544 1544 1544
1513 1516 1517 1517 1517 1518 1519 1521 1523 1525 1525 1526 1528 1529 1530 1531 1532 1533 1533 1534 1535 1536 1536 1537 1537 1537 1538 1538 1538 1538 1539 1539 1540 1540 1541 1541 1542 1542 1543 1543 1543 1544 1544 1544 1544 1544 1545 1545 1544
1516 1515 1516 1517 1517 1517 1519 1520 1523 1525 1525 1526 1527 1528 1529 1530 1531 1532 1532 1533 1534 1535 1536 1536 1536 1537 1537 1537 1538 1538 1538 1538 1539 1539 1540 1541 1541 1542 1542 1542 1543 1544 1544 1544 1544 1544 1544 1544 1544
1513 1514 1516 1516 1517 1519 1519 1520 1521 1523 1524 1525 1526 1527 1528 1529 1530 1531 1531 1532 1533 1534 1534 1535 1535 1536 1536 1537 1537 1537 1537 1537 1538 1538 1539 1540 1540 1541 1541 1542 1543 1543 1543 1544 1544 1544 1544 1544 1544
1514 1515 1516 1517 1518 1518 1518 1520 1520 1522 1523 1524 1525 1526 1527 1528 1529 1530 1530 1531 1532 1533 1533 1534 1534 1535 1535 1535 1536 1536 1536 1536 1537 1537 1538 1538 1539 1540 1541 1542 1542 1542 1542 1543 1543 1543 1544 1544 1544
1514 1514 1515 1517 1518 1518 1519 1519 1518 1519 1522 1524 1524 1525 1526 1527 1528 1528 1529 1530 1531 1531 1532 1532 1533 1534 1534 1534 1534 1535 1535 1535 1536 1536 1537 1537 1538 1539 1540 1541 1541 1541 1542 1542 1542 1543 1543 1543 1544
1515 1513 1515 1516 1518 1517 1518 1522 1516 1516 1518 1521 1522 1523 1524 1525 1526 1527 1528 1529 1529 1530 1531 1531 1532 1533 1533 1533 1533 1534 1534 1535 1535 1536 1536 1536 1537 1538 1538 1539 1540 1540 1541 1541 1542 1542 1542 1542 1543
1513 1514 1514 1515 1515 1516 1515 1519 1514 1513 1515 1517 1519 1521 1523 1524 1525 1526 1527 1528 1528 1529 1529 1530 1531 1531 1531 1532 1532 1532 1533 1534 1534 1534 1535 1535 1536 1536 1537 1538 1538 1539 1539 1540 1540 1540 1541 1541 1542
1514 1515 1515 1514 1514 1521 1514 1517 1516 1511 1513 1514 1517 1519 1521 1523 1524 1525 1526 1527 1527 1528 1528 1529 1529 1530 1530 1531 1531 1531 1532 1532 1533 1533 1534 1534 1534 1535 1535 1536 1536 1537 1538 1538 1539 1539 1539 1540 1540
1513 1514 1519 1519 1519 1516 1513 1516 1514 1510 1513 1515 1516 1518 1520 1521 1522 1524 1525 1525 1526 1526 1527 1528 1528 1529 1529 1530 1530 1530 1531 1531 1532 1532 1533 1533 1533 1533 1534 1534 1535 1536 1536 1537 1537 1538 1538 1538 1538
1510 1511 1519 1523 1519 1514 1514 1515 1511 1512 1514 1515 1516 1518 1519 1520 1521 1522 1523 1524 1525 1525 1526 1526 1527 1527 1528 1528 1529 1529 1529 1530 1530 1531 1531 1532 1532 1532 1532 1533 1533 1534 1534 1535 1535 1536 1536 1536 1536
1510 1510 1509 1513 1512 1516 1511 1511 1511 1511 1513 1514 1515 1517 1518 1519 1520 1521 1522 1523 1524 1524 1525 1525 1526 1526 1526 1527 1527 1528 1528 1528 1529 1529 1530 1530 1530 1530 1531 1531 1532 1532 1532 1533 1533 1533 1533 1534 1534
1509 1509 1511 1514 1520 1519 1513 1511 1510 1509 1510 1511 1513 1515 1517 1518 1519 1520 1521 1522 1523 1523 1524 1525 1525 1525 1525 1526 1526 1526 1526 1527 1527 1527 1527 1528 1528 1528 1528 1529 1529 1530 1530 1530 1531 1531 1531 1531 1531
1511 1512 1510 1511 1512 1517 1517 1513 1506 1507 1509 1511 1512 1514 1516 1517 1518 1519 1520 1521 1521 1522 1523 1523 1523 1524 1524 1524 1524 1524 1524 1525 1525 1525 1525 1525 1525 1526 1526 1526 1527 1527 1528 1528 1528 1528 1528 1529 1529
1507 1507 1509 1513 1512 1512 1514 1514 1507 1508 1510 1512 1513 1514 1515 1516 1517 1518 1518 1519 1520 1521 1522 1522 1522 1522 1522 1522 1522 1522 1522 1522 1522 1523 1522 1522 1522 1523 1523 1523 1524 1524 1524 1525 1525 1525 1525 1526 1526